EW8832 Weather Reports


Display with metric or nautical units.
time (UTC)temp
F
wind
direction
speed
MPH
gust
MPH
rain 1hr
in
rain 24hr
in
rain mn
in
humidity
%
barometer
mb
20260902095042 77 168 1.0 3.0 0.00 0.00 0.00 73 1012.7
20260902094542 77 168 0.0 2.0 0.00 0.00 0.00 73 1012.8
20260902094041 77 168 0.0 1.0 0.00 0.00 0.00 72 1012.8
20260902093541 77 168 0.0 2.0 0.00 0.00 0.00 73 1012.8
20260902093041 77 168 0.0 2.0 0.00 0.00 0.00 73 1012.7
20260902092544 77 168 0.0 2.0 0.00 0.00 0.00 73 1012.8
20260902092041 77 168 0.0 2.0 0.00 0.00 0.00 73 1012.8
20260902091544 77 168 0.0 0.0 0.00 0.00 0.00 73 1012.8
20260902091040 77 168 0.0 0.0 0.00 0.00 0.00 73 1012.8
20260902090542 77 168 0.0 0.0 0.00 0.00 0.00 73 1012.7
20260902090040 77 168 0.0 0.0 0.00 0.00 0.00 72 1012.7
20260902085039 77 168 0.0 0.0 0.00 0.00 0.00 72 1012.7
20260902084540 77 168 0.0 2.0 0.00 0.00 0.00 72 1012.8
20260902084042 77 168 0.0 3.0 0.00 0.00 0.00 72 1012.7
20260902083538 78 167 1.0 5.0 0.00 0.00 0.00 71 1012.7
20260902083037 78 168 3.0 5.0 0.00 0.00 0.00 71 1012.7
20260902082537 78 168 3.0 5.0 0.00 0.00 0.00 71 1012.7
20260902082037 78 168 4.0 5.0 0.00 0.00 0.00 71 1012.7
20260902081537 78 168 3.0 5.0 0.00 0.00 0.00 70 1012.7
20260902081035 79 168 1.0 3.0 0.00 0.00 0.00 69 1012.7
20260902080535 79 168 0.0 0.0 0.00 0.00 0.00 68 1012.7
20260902080035 79 168 0.0 0.0 0.00 0.00 0.00 68 1012.8
20260902075035 79 168 0.0 3.0 0.00 0.00 0.00 68 1012.7
20260902074540 79 168 0.0 3.0 0.00 0.00 0.00 68 1012.6
20260902074035 79 167 1.0 3.0 0.00 0.00 0.00 68 1012.6
20260902073534 79 166 1.0 5.0 0.00 0.00 0.00 68 1012.6
20260902073033 79 165 2.0 5.0 0.00 0.00 0.00 68 1012.6
20260902072534 79 165 3.0 5.0 0.00 0.00 0.00 68 1012.6
20260902072036 80 167 3.0 5.0 0.00 0.00 0.00 67 1012.7
20260902071533 80 167 2.0 5.0 0.00 0.00 0.00 67 1012.7
20260902071033 79 167 2.0 7.0 0.00 0.00 0.00 68 1012.7
20260902070534 79 158 3.0 7.0 0.00 0.00 0.00 68 1012.8
20260902070032 79 163 3.0 5.0 0.00 0.00 0.00 68 1012.8
20260902065033 79 163 1.0 3.0 0.00 0.00 0.00 69 1012.8
20260902064531 78 163 1.0 2.0 0.00 0.00 0.00 69 1012.8
20260902064032 78 162 0.0 6.0 0.00 0.00 0.00 69 1012.8
20260902063534 79 162 3.0 6.0 0.00 0.00 0.00 68 1012.8
20260902063039 79 162 2.0 5.0 0.00 0.00 0.00 67 1012.7
20260902062532 79 162 3.0 5.0 0.00 0.00 0.00 67 1012.7
20260902062027 80 163 3.0 5.0 0.00 0.00 0.00 66 1012.7
20260902061526 80 163 2.0 5.0 0.00 0.00 0.00 65 1012.7
20260902061025 80 163 3.0 5.0 0.00 0.00 0.00 65 1012.7
20260902060523 81 163 3.0 6.0 0.00 0.00 0.00 64 1012.8
20260902060023 81 165 4.0 6.0 0.00 0.00 0.00 63 1012.7
20260902055023 81 167 4.0 6.0 0.00 0.00 0.00 63 1012.8
20260902054528 81 171 3.0 7.0 0.00 0.00 0.00 63 1012.8
20260902054025 81 175 3.0 7.0 0.00 0.00 0.00 63 1012.7
20260902053522 81 176 4.0 8.0 0.00 0.00 0.00 63 1012.7
20260902053022 81 163 4.0 8.0 0.00 0.00 0.00 63 1012.7
20260902052521 81 178 3.0 4.0 0.00 0.00 0.00 63 1012.7
20260902052024 81 171 2.0 4.0 0.00 0.00 0.00 63 1012.7
20260902051521 81 167 3.0 6.0 0.00 0.00 0.00 62 1012.7
20260902051021 81 173 2.0 5.0 0.00 0.00 0.00 62 1012.7
20260902050523 81 177 2.0 4.0 0.00 0.00 0.00 62 1012.7
20260902050048 81 177 2.0 4.0 0.00 0.00 0.00 62 1012.7
20260902045019 81 171 2.0 5.0 0.00 0.00 0.00 62 1012.7
20260902044519 81 171 3.0 5.0 0.00 0.00 0.00 62 1012.6
20260902044018 81 173 2.0 6.0 0.00 0.00 0.00 62 1012.6
20260902043518 81 157 2.0 5.0 0.00 0.00 0.00 61 1012.5
20260902043029 82 154 2.0 6.0 0.00 0.00 0.00 61 1012.5
20260902042523 82 153 2.0 6.0 0.00 0.00 0.00 60 1012.4
20260902042019 82 151 3.0 5.0 0.00 0.00 0.00 60 1012.4
20260902041518 82 150 2.0 5.0 0.00 0.00 0.00 59 1012.4
20260902041017 83 149 3.0 5.0 0.00 0.00 0.00 59 1012.4
20260902040518 83 149 3.0 6.0 0.00 0.00 0.00 59 1012.4
20260902040020 83 151 2.0 5.0 0.00 0.00 0.00 58 1012.4
20260902035018 83 148 2.0 5.0 0.00 0.00 0.00 58 1012.4
20260902034522 83 149 3.0 6.0 0.00 0.00 0.00 57 1012.4
20260902034017 84 149 3.0 6.0 0.00 0.00 0.00 57 1012.4
20260902033518 84 143 4.0 7.0 0.00 0.00 0.00 56 1012.3
20260902033017 85 143 4.0 7.0 0.00 0.00 0.00 55 1012.3
20260902032519 85 146 4.0 7.0 0.00 0.00 0.00 55 1012.2
20260902032016 86 146 4.0 8.0 0.00 0.00 0.00 54 1012.2
20260902031519 86 148 5.0 9.0 0.00 0.00 0.00 53 1012.2
20260902031021 86 140 5.0 10.0 0.00 0.00 0.00 53 1012.1
20260902030517 86 156 6.0 10.0 0.00 0.00 0.00 53 1012.0
20260902030116 86 149 6.0 11.0 0.00 0.00 0.00 53 1012.0
20260902025016 86 155 4.0 9.0 0.00 0.00 0.00 52 1011.8
20260902024517 86 139 6.0 9.0 0.00 0.00 0.00 52 1011.7
20260902024015 86 157 5.0 9.0 0.00 0.00 0.00 51 1011.7
20260902023516 87 147 5.0 9.0 0.00 0.00 0.00 50 1011.6
20260902023016 87 160 4.0 10.0 0.00 0.00 0.00 50 1011.5
20260902022516 87 146 4.0 10.0 0.00 0.00 0.00 50 1011.4
20260902022016 87 162 6.0 10.0 0.00 0.00 0.00 50 1011.3
20260902021517 87 154 5.0 10.0 0.00 0.00 0.00 50 1011.3
20260902021015 86 159 6.0 10.0 0.00 0.00 0.00 50 1011.2
20260902020516 86 142 6.0 9.0 0.00 0.00 0.00 50 1011.2
20260902020015 87 151 4.0 7.0 0.00 0.00 0.00 49 1011.1
20260902015015 87 160 4.0 8.0 0.00 0.00 0.00 49 1011.0
20260902014514 86 156 4.0 8.0 0.00 0.00 0.00 48 1010.9
20260902014014 86 168 4.0 7.0 0.00 0.00 0.00 49 1010.8
20260902013514 86 153 4.0 6.0 0.00 0.00 0.00 49 1010.7
20260902013015 86 159 3.0 5.0 0.00 0.00 0.00 48 1010.6
20260902012514 87 159 2.0 4.0 0.00 0.00 0.00 47 1010.6
20260902012014 87 159 2.0 4.0 0.00 0.00 0.00 47 1010.6
20260902011515 88 159 2.0 5.0 0.00 0.00 0.00 46 1010.6
20260902011017 88 168 2.0 5.0 0.00 0.00 0.00 45 1010.6
20260902010513 89 169 3.0 5.0 0.00 0.00 0.00 44 1010.6
20260902010015 90 170 3.0 5.0 0.00 0.00 0.00 42 1010.6
20260902005015 91 170 3.0 5.0 0.00 0.00 0.00 42 1010.6
20260902004514 91 183 3.0 5.0 0.00 0.00 0.00 41 1010.6
20260902004013 92 169 2.0 5.0 0.00 0.00 0.00 40 1010.5
20260902003512 92 169 2.0 6.0 0.00 0.00 0.00 40 1010.6
20260902003021 93 169 2.0 6.0 0.00 0.00 0.00 39 1010.6
20260902002513 93 171 2.0 5.0 0.00 0.00 0.00 38 1010.7
20260902002015 93 163 3.0 6.0 0.00 0.00 0.00 38 1010.7
20260902001512 94 180 3.0 6.0 0.00 0.00 0.00 37 1010.7
20260902001012 94 178 3.0 6.0 0.00 0.00 0.00 37 1010.7
20260902000517 95 178 2.0 9.0 0.00 0.00 0.00 36 1010.7
20260902000013 95 179 5.0 10.0 0.00 0.00 0.00 35 1010.7
20260901235111 96 154 4.0 11.0 0.00 0.00 0.00 35 1010.7
20260901234510 96 162 7.0 11.0 0.00 0.00 0.00 34 1010.7
20260901234010 97 179 8.0 11.0 0.00 0.00 0.00 34 1010.7
20260901233509 97 178 5.0 12.0 0.00 0.00 0.00 33 1010.7
20260901233010 98 189 5.0 10.0 0.00 0.00 0.00 32 1010.8
20260901232511 98 202 5.0 12.0 0.00 0.00 0.00 32 1010.8
20260901232010 98 151 7.0 12.0 0.00 0.00 0.00 32 1010.8
20260901231510 98 165 5.0 11.0 0.00 0.00 0.00 31 1010.9
20260901231009 99 206 4.0 11.0 0.00 0.00 0.00 31 1010.9
20260901230509 99 218 4.0 8.0 0.00 0.00 0.00 31 1010.9
20260901230009 99 163 2.0 8.0 0.00 0.00 0.00 31 1011.0
20260901225012 99 188 2.0 11.0 0.00 0.00 0.00 31 1011.0
20260901224511 99 171 6.0 10.0 0.00 0.00 0.00 30 1010.9
20260901224011 99 170 5.0 10.0 0.00 0.00 0.00 29 1010.9
20260901223509 99 173 4.0 8.0 0.00 0.00 0.00 29 1010.9
20260901223009 99 211 3.0 13.0 0.00 0.00 0.00 30 1010.9
20260901222508 99 259 5.0 13.0 0.00 0.00 0.00 30 1010.9
20260901222011 99 166 3.0 9.0 0.00 0.00 0.00 30 1010.8
20260901221508 99 199 3.0 10.0 0.00 0.00 0.00 30 1010.8
20260901221011 98 207 3.0 10.0 0.00 0.00 0.00 31 1010.8
20260901220509 98 188 3.0 11.0 0.00 0.00 0.00 32 1010.8
20260901220007 99 187 5.0 11.0 0.00 0.00 0.00 32 1010.9
20260901215010 98 213 0.0 9.0 0.00 0.00 0.00 31 1010.7
20260901214507 98 196 3.0 12.0 0.00 0.00 0.00 32 1010.9
20260901214006 98 210 6.0 12.0 0.00 0.00 0.00 31 1011.0
20260901213507 98 134 5.0 11.0 0.00 0.00 0.00 31 1010.9
20260901213005 98 187 5.0 12.0 0.00 0.00 0.00 32 1011.0
20260901212505 98 105 9.0 13.0 0.00 0.00 0.00 32 1011.1
20260901212005 98 145 8.0 13.0 0.00 0.00 0.00 31 1011.1
20260901211504 98 146 4.0 11.0 0.00 0.00 0.00 33 1011.1
20260901211004 98 157 6.0 12.0 0.00 0.00 0.00 32 1011.2
20260901210504 98 205 7.0 12.0 0.00 0.00 0.00 32 1011.3
20260901210003 98 180 4.0 11.0 0.00 0.00 0.00 32 1011.3
20260901205100 98 167 3.0 11.0 0.00 0.00 0.00 34 1011.4
20260901204600 97 234 6.0 11.0 0.00 0.00 0.00 34 1011.5
20260901204058 96 248 5.0 8.0 0.00 0.00 0.00 34 1011.5
20260901203559 96 195 3.0 8.0 0.00 0.00 0.00 34 1011.7
20260901203059 95 149 4.0 10.0 0.00 0.00 0.00 35 1011.8
20260901202556 95 184 5.0 12.0 0.00 0.00 0.00 36 1011.9
20260901202055 95 150 7.0 12.0 0.00 0.00 0.00 38 1012.0
20260901201602 95 168 6.0 10.0 0.00 0.00 0.00 37 1012.0
20260901201055 96 179 7.0 10.0 0.00 0.00 0.00 37 1012.1
20260901200555 97 161 7.0 11.0 0.00 0.00 0.00 36 1012.1
20260901200054 98 248 5.0 12.0 0.00 0.00 0.00 36 1012.0
20260901195055 98 183 5.0 11.0 0.00 0.00 0.00 36 1012.2
20260901194555 97 182 5.0 9.0 0.00 0.00 0.00 36 1012.3
20260901194052 97 191 5.0 14.0 0.00 0.00 0.00 36 1012.2
20260901193551 97 129 7.0 17.0 0.00 0.00 0.00 36 1012.2
20260901193050 96 146 4.0 16.0 0.00 0.00 0.00 38 1012.4
20260901192548 95 167 2.0 7.0 0.00 0.00 0.00 41 1012.4
20260901192048 95 67 3.0 10.0 0.00 0.00 0.00 40 1012.5
20260901191605 94 94 4.0 10.0 0.00 0.00 0.00 41 1012.6
20260901191046 94 227 0.0 9.0 0.00 0.00 0.00 40 1012.7
20260901190550 95 265 6.0 9.0 0.00 0.00 0.00 39 1012.7
20260901190046 95 55 1.0 6.0 0.00 0.00 0.00 40 1012.8
20260901185045 94 138 4.0 11.0 0.00 0.00 0.00 41 1012.9
20260901184608 94 140 5.0 9.0 0.00 0.00 0.00 41 1012.9
20260901184046 95 127 4.0 8.0 0.00 0.00 0.00 39 1013.0
20260901183547 95 162 2.0 9.0 0.00 0.00 0.00 39 1013.1
20260901183050 95 11 4.0 9.0 0.00 0.00 0.00 40 1013.1
20260901182545 95 218 4.0 9.0 0.00 0.00 0.00 39 1013.3
20260901182044 95 228 5.0 9.0 0.00 0.00 0.00 40 1013.3
20260901181553 95 181 6.0 9.0 0.00 0.00 0.00 41 1013.3
20260901181044 94 167 1.0 9.0 0.00 0.00 0.00 42 1013.5
20260901180540 94 182 3.0 10.0 0.00 0.00 0.00 41 1013.6
20260901180040 94 212 1.0 8.0 0.00 0.00 0.00 43 1013.7
20260901175040 93 215 2.0 5.0 0.00 0.00 0.00 44 1013.9
20260901174552 93 198 2.0 7.0 0.00 0.00 0.00 43 1014.0
20260901174039 93 219 2.0 9.0 0.00 0.00 0.00 43 1014.1
20260901173540 93 212 5.0 10.0 0.00 0.00 0.00 43 1014.2
20260901173040 93 205 4.0 10.0 0.00 0.00 0.00 44 1014.3
20260901172539 93 272 2.0 9.0 0.00 0.00 0.00 44 1014.2
20260901172039 93 311 4.0 10.0 0.00 0.00 0.00 42 1014.2
20260901171542 93 290 5.0 10.0 0.00 0.00 0.00 42 1014.3
20260901171041 93 198 3.0 10.0 0.00 0.00 0.00 43 1014.3
20260901170540 93 248 4.0 10.0 0.00 0.00 0.00 44 1014.4
20260901170038 93 206 4.0 9.0 0.00 0.00 0.00 44 1014.4
20260901165038 93 231 4.0 9.0 0.00 0.00 0.00 45 1014.6
20260901164542 93 223 4.0 9.0 0.00 0.00 0.00 46 1014.7
20260901164036 93 200 5.0 9.0 0.00 0.00 0.00 46 1014.7
20260901163535 93 211 3.0 14.0 0.00 0.00 0.00 47 1014.7
20260901163034 92 130 4.0 11.0 0.00 0.00 0.00 47 1014.7
20260901162536 92 194 4.0 11.0 0.00 0.00 0.00 47 1014.8
20260901162034 92 232 2.0 10.0 0.00 0.00 0.00 48 1014.8
20260901161531 92 227 4.0 10.0 0.00 0.00 0.00 48 1014.8
20260901161034 92 275 3.0 11.0 0.00 0.00 0.00 49 1014.8
20260901160529 91 242 3.0 11.0 0.00 0.00 0.00 48 1014.9
20260901160040 91 223 6.0 12.0 0.00 0.00 0.00 49 1014.9
20260901155027 91 223 5.0 15.0 0.00 0.00 0.00 50 1014.9
20260901154527 90 234 2.0 13.0 0.00 0.00 0.00 52 1014.9
20260901154024 90 267 6.0 13.0 0.00 0.00 0.00 52 1014.9
20260901153523 90 220 5.0 9.0 0.00 0.00 0.00 52 1015.0
20260901153023 89 198 5.0 11.0 0.00 0.00 0.00 53 1015.0
20260901152521 89 217 5.0 15.0 0.00 0.00 0.00 53 1015.0
20260901152021 89 221 7.0 15.0 0.00 0.00 0.00 53 1015.0
20260901151523 89 221 6.0 12.0 0.00 0.00 0.00 53 1015.0
20260901151019 88 229 4.0 14.0 0.00 0.00 0.00 55 1015.0
20260901150516 88 219 6.0 14.0 0.00 0.00 0.00 55 1015.0
20260901150021 88 188 6.0 14.0 0.00 0.00 0.00 55 1015.0
20260901145017 87 213 6.0 11.0 0.00 0.00 0.00 57 1015.0
20260901144513 87 271 4.0 10.0 0.00 0.00 0.00 57 1015.1
20260901144012 86 198 6.0 11.0 0.00 0.00 0.00 58 1015.1
20260901143512 86 226 6.0 11.0 0.00 0.00 0.00 58 1015.0
20260901143014 86 235 5.0 11.0 0.00 0.00 0.00 58 1015.1
20260901142511 86 225 4.0 10.0 0.00 0.00 0.00 59 1015.0
20260901142009 85 217 4.0 10.0 0.00 0.00 0.00 59 1015.0
20260901141508 85 219 3.0 10.0 0.00 0.00 0.00 60 1014.9
20260901141007 84 250 3.0 8.0 0.00 0.00 0.00 62 1015.0
20260901140505 84 196 4.0 8.0 0.00 0.00 0.00 61 1015.1
20260901140004 84 229 5.0 8.0 0.00 0.00 0.00 62 1015.0
20260901135006 83 197 4.0 8.0 0.00 0.00 0.00 63 1015.1
20260901134503 82 258 3.0 7.0 0.00 0.00 0.00 64 1015.2
20260901134003 82 234 3.0 9.0 0.00 0.00 0.00 65 1015.1
20260901133604 82 230 4.0 9.0 0.00 0.00 0.00 65 1015.2
20260901133100 82 213 4.0 7.0 0.00 0.00 0.00 65 1015.2
20260901132600 81 246 1.0 5.0 0.00 0.00 0.00 66 1015.1
20260901132059 81 219 1.0 5.0 0.00 0.00 0.00 66 1015.0
20260901131556 80 230 1.0 5.0 0.00 0.00 0.00 67 1014.9
20260901131055 80 230 0.0 4.0 0.00 0.00 0.00 68 1014.9
20260901130554 79 228 1.0 4.0 0.00 0.00 0.00 69 1014.8
20260901130054 79 207 0.0 2.0 0.00 0.00 0.00 70 1014.8
20260901125652 78 201 0.0 3.0 0.00 0.00 0.00 72 1014.8
20260901125053 78 201 1.0 3.0 0.00 0.00 0.00 71 1014.7
20260901124554 77 201 0.0 0.0 0.00 0.00 0.00 72 1014.7
20260901124052 77 201 0.0 0.0 0.00 0.00 0.00 72 1014.6
20260901123552 77 201 0.0 0.0 0.00 0.00 0.00 72 1014.6
20260901123106 77 201 0.0 0.0 0.00 0.00 0.00 72 1014.5
20260901122551 77 201 0.0 0.0 0.00 0.00 0.00 72 1014.4
20260901122050 76 201 0.0 0.0 0.00 0.00 0.00 72 1014.4
20260901121549 76 201 0.0 0.0 0.00 0.00 0.00 72 1014.3
20260901121049 76 201 0.0 0.0 0.00 0.00 0.00 72 1014.2
20260901120548 76 201 0.0 0.0 0.00 0.00 0.00 72 1014.1
20260901120056 76 201 0.0 0.0 0.00 0.00 0.00 72 1014.1
20260901115649 76 201 0.0 0.0 0.00 0.00 0.00 72 1014.1
20260901115050 76 201 0.0 0.0 0.00 0.00 0.00 72 1014.1
20260901114550 76 201 0.0 0.0 0.00 0.00 0.00 72 1014.1
20260901114046 76 201 0.0 0.0 0.00 0.00 0.00 71 1014.1
20260901113546 76 201 0.0 0.0 0.00 0.00 0.00 71 1014.0
20260901113048 77 201 0.0 0.0 0.00 0.00 0.00 71 1013.9
20260901112544 77 201 0.0 0.0 0.00 0.00 0.00 71 1013.9
20260901112044 77 201 0.0 0.0 0.00 0.00 0.00 70 1013.9
20260901111550 77 201 0.0 0.0 0.00 0.00 0.00 70 1013.9
20260901111044 77 201 0.0 0.0 0.00 0.00 0.00 70 1013.8
20260901110542 77 201 0.0 0.0 0.00 0.00 0.00 70 1013.8
20260901110044 77 201 0.0 1.0 0.00 0.00 0.00 70 1013.7
20260901105642 77 201 0.0 2.0 0.00 0.00 0.00 69 1013.7
20260901105043 77 201 0.0 2.0 0.00 0.00 0.00 69 1013.7
20260901104543 78 201 0.0 3.0 0.00 0.00 0.00 69 1013.6
20260901104040 78 201 0.0 2.0 0.00 0.00 0.00 68 1013.6
20260901103539 78 201 0.0 2.0 0.00 0.00 0.00 68 1013.6
20260901103039 78 201 0.0 2.0 0.00 0.00 0.00 68 1013.6
20260901102541 78 201 0.0 3.0 0.00 0.00 0.00 68 1013.6
20260901102039 78 200 1.0 3.0 0.00 0.00 0.00 68 1013.6
20260901101538 78 194 0.0 3.0 0.00 0.00 0.00 68 1013.6
20260901101039 78 182 0.0 3.0 0.00 0.00 0.00 68 1013.5
20260901100538 78 182 1.0 3.0 0.00 0.00 0.00 68 1013.5
20260901100046 78 182 2.0 4.0 0.00 0.00 0.00 68 1013.4
20260901095637 78 182 2.0 4.0 0.00 0.00 0.00 67 1013.4